Temperature
21 20 19 19 19 19 21 22 23 23 23 23 23 22 21 21 21 21 21 21 21 21 20 20 20 20 20 20 20 20 20 19 19 19 19 19 19 19 19 19 19 19 19 19 19 19 19 19 19
21 20 19 19 19 20 21 22 23 23 23 23 23 22 21 21 21 21 21 21 21 20 20 20 20 20 20 20 20 19 19 19 19 19 19 19 19 19 19 19 19 19 19 19 19 19 19 19 19
20 20 20 19 20 21 22 23 23 23 24 23 23 22 22 21 21 21 21 21 21 20 20 20 20 20 20 19 19 19 19 19 19 19 19 19 19 19 19 19 19 19 19 19 19 19 19 19 19
21 20 20 20 21 22 23 23 23 23 23 23 23 22 21 21 21 21 21 21 21 20 20 20 20 20 19 19 19 19 19 19 19 19 19 19 19 19 19 19 19 19 19 19 19 19 19 19 19
21 21 20 20 21 23 23 23 23 23 23 23 22 21 21 21 21 21 21 21 21 20 20 20 20 19 19 19 19 19 19 19 19 19 19 19 19 19 19 19 19 19 19 19 19 19 19 18 18
22 20 20 21 22 23 24 24 23 23 23 22 22 21 21 21 21 21 21 21 20 20 20 20 20 19 19 19 19 19 19 19 19 19 19 19 19 19 19 19 19 19 19 18 18 18 18 18 18
21 20 21 21 22 23 24 24 23 23 23 22 22 21 21 21 21 21 21 21 20 20 20 20 20 20 19 19 19 19 19 19 19 19 19 19 19 19 19 19 19 19 19 18 18 18 18 18 18
22 20 21 21 22 23 24 24 24 23 23 23 22 21 21 21 21 21 21 20 20 20 20 20 20 19 19 19 19 19 19 19 19 19 19 19 19 19 19 19 19 19 19 18 18 18 18 18 18
22 20 21 22 23 23 24 24 24 24 23 22 22 22 22 21 21 21 21 20 20 20 20 20 20 19 19 19 19 19 19 19 19 19 19 19 19 19 19 19 19 18 18 18 18 18 18 18 18
22 20 22 23 23 23 24 24 24 23 23 22 22 22 21 21 21 21 21 20 20 20 20 20 20 20 19 19 19 19 19 19 19 19 19 19 19 19 19 19 18 18 18 18 18 18 18 18 18
22 22 23 24 24 24 24 24 24 23 22 22 22 22 21 21 21 21 21 21 20 20 20 20 20 20 20 19 19 19 19 19 19 19 19 19 19 19 19 18 18 18 18 18 18 18 18 18 18
22 23 24 24 25 25 24 24 23 23 23 23 23 22 22 21 21 21 21 21 21 20 20 20 20 20 19 19 19 19 19 19 19 19 19 19 19 19 19 18 18 18 18 18 18 18 18 18 18
23 24 25 25 25 25 24 24 23 23 23 23 22 22 21 21 21 21 21 21 21 20 20 20 20 19 19 19 19 19 19 19 19 19 19 19 19 19 18 18 18 18 18 18 18 18 18 18 18
24 24 24 25 25 25 24 23 23 23 23 23 22 22 21 21 21 21 21 21 20 20 20 20 20 19 19 19 19 19 19 19 19 19 19 19 18 18 18 18 18 18 18 18 18 18 18 18 18
25 24 24 24 25 25 24 23 23 23 23 22 22 21 21 21 21 21 21 21 21 20 20 20 20 19 19 19 19 19 19 19 19 19 18 18 18 18 18 18 18 18 18 18 18 18 18 18 18
24 24 23 24 24 25 24 22 23 23 22 22 21 21 21 21 21 21 21 21 21 20 20 20 20 20 19 19 19 19 19 19 19 18 18 18 18 18 18 18 18 18 18 18 18 18 18 18 18
23 23 23 24 24 24 23 22 23 23 22 21 21 21 21 21 21 21 21 21 21 20 20 20 20 20 19 19 19 19 19 19 19 18 18 18 18 18 18 18 18 18 18 18 18 18 18 18 18
23 23 23 23 24 23 23 22 22 22 22 21 21 21 21 21 21 21 21 21 21 20 20 20 20 20 19 19 19 19 19 19 18 18 18 18 18 18 18 18 18 18 18 18 18 18 18 18 18
24 23 23 24 24 23 22 22 22 22 22 21 21 21 21 21 21 21 21 21 21 21 20 20 20 20 20 19 19 19 19 18 18 18 18 18 18 18 18 18 17 17 18 18 18 18 18 17 18
24 23 23 23 24 24 22 22 22 22 21 22 22 21 21 21 21 21 21 21 21 21 20 20 20 20 20 19 19 19 19 18 18 18 18 18 18 18 18 18 17 17 17 17 17 17 17 17 17
24 23 23 23 23 23 23 22 22 22 22 22 22 22 21 22 22 22 21 21 21 21 21 20 20 20 20 19 19 19 19 18 18 18 18 18 18 18 17 17 17 17 17 17 17 17 17 17 17
24 24 24 24 22 21 22 21 22 21 21 21 21 21 21 22 22 22 22 21 21 21 21 20 20 20 20 19 19 19 19 18 18 18 18 17 17 17 17 17 17 17 17 17 17 17 17 17 17
24 24 24 23 22 21 21 21 21 20 21 21 21 21 21 22 22 22 22 22 21 21 20 20 20 20 20 19 19 19 19 18 18 18 18 17 17 17 17 17 17 17 17 17 17 17 17 17 17
24 23 22 20 20 21 21 21 21 20 21 21 21 22 22 22 22 22 22 22 21 21 21 20 20 20 19 19 19 19 19 18 18 18 18 17 17 17 17 17 17 17 17 17 16 16 16 17 17
24 22 21 22 20 21 20 21 20 21 21 21 21 21 22 22 21 22 21 21 21 21 21 20 20 20 19 19 19 19 18 18 18 18 18 18 17 17 17 17 17 17 16 16 16 16 16 16 16
23 22 22 22 21 20 20 20 21 21 21 21 21 21 21 21 21 21 21 21 21 21 21 20 20 20 19 19 19 18 18 18 18 18 18 18 17 17 17 17 16 16 16 16 16 16 16 16 16
23 21 21 20 20 20 20 20 21 21 21 21 21 21 21 21 21 21 21 21 21 21 21 20 20 20 19 19 19 18 18 18 18 18 17 17 17 17 17 16 16 16 16 16 16 16 16 16 16
23 20 19 19 20 21 21 21 21 21 21 20 20 20 20 21 21 21 21 21 21 21 20 20 20 19 19 19 18 18 18 18 18 17 17 17 17 17 16 16 16 16 16 16 16 16 16 16 16
23 21 18 17 19 20 21 21 22 21 20 20 20 20 20 21 21 21 21 21 21 20 20 20 19 19 19 19 18 18 18 18 17 17 17 17 16 16 16 16 16 16 16 16 16 15 15 15 15
23 21 19 21 20 18 19 20 21 20 20 20 20 20 20 21 21 21 21 21 20 20 20 19 19 19 19 19 18 18 18 18 17 17 17 16 16 16 16 16 16 15 15 15 15 15 15 15 15
Wind_Speed
7 6 3 1 2 3 3 3 1 2 3 2 3 4 4 2 1 1 1 3 5 5 4 5 6 6 6 7 6 7 7 7 8 8 10 10 10 10 9 9 9 9 9 10 10 9 10 11 11
6 5 2 1 3 3 4 3 2 2 1 2 3 4 4 3 2 3 2 2 5 5 4 4 5 5 6 6 6 6 7 7 7 8 9 9 9 9 9 9 9 9 9 9 9 10 10 10 11
6 3 1 3 3 1 2 2 1 2 2 2 3 4 3 2 1 2 1 5 5 4 3 4 5 6 6 6 6 6 6 6 7 8 8 8 8 8 8 8 8 8 8 9 9 9 9 9 10
3 1 2 4 3 2 2 2 1 1 3 4 3 4 3 3 2 3 5 6 5 3 2 3 5 5 6 6 6 6 6 6 7 7 7 7 6 6 7 7 7 7 7 8 8 8 9 9 9
1 2 4 3 3 3 2 2 2 2 2 3 4 3 3 4 5 6 6 5 4 2 1 1 4 4 6 6 6 5 6 6 7 7 7 7 6 6 5 6 6 6 7 7 7 7 8 8 8
2 3 4 3 4 3 2 2 2 3 3 3 4 3 3 3 4 5 5 4 3 3 1 1 3 5 6 6 6 5 6 6 7 7 7 6 5 5 4 5 5 5 6 6 7 6 7 7 7
2 3 2 1 3 3 1 2 3 3 4 2 3 4 2 2 3 4 4 4 4 3 2 2 2 3 5 6 6 6 6 7 7 6 6 5 5 4 4 4 4 4 5 5 5 6 6 7 7
2 3 2 1 1 2 1 2 2 3 2 2 3 5 3 2 4 5 6 5 4 4 3 3 3 3 3 3 5 5 5 6 6 5 5 5 4 3 3 3 4 3 4 4 4 4 5 5 6
3 3 0 2 2 2 1 2 1 3 4 3 3 3 4 7 7 6 6 5 4 3 3 3 3 3 3 3 3 4 4 4 4 4 4 3 2 2 2 3 3 3 3 3 3 3 3 4 5
3 2 3 3 3 2 0 1 2 3 4 3 5 6 8 8 7 7 5 4 2 1 2 3 3 3 3 3 3 3 4 4 4 3 3 3 3 2 2 2 2 2 2 2 2 2 3 3 3
3 4 3 1 2 2 1 1 2 5 2 2 6 7 8 7 6 5 4 3 2 1 2 2 3 3 3 3 3 2 3 3 4 4 4 4 3 2 2 2 1 1 2 2 2 2 2 2 2
2 3 3 1 1 2 3 2 3 3 3 4 8 9 9 7 6 5 4 3 2 2 2 3 3 4 4 3 3 2 2 2 2 3 4 3 2 3 2 2 2 2 2 2 2 2 2 2 2
2 2 1 1 0 2 3 3 3 2 3 7 9 9 8 7 5 3 3 3 3 3 2 2 3 4 4 3 2 3 2 2 2 2 3 3 2 3 3 2 2 3 3 2 2 2 2 2 2
2 0 2 2 2 2 5 3 3 2 5 7 8 7 6 6 5 4 4 4 3 3 2 3 3 4 4 3 3 2 2 2 2 2 2 3 3 2 3 3 3 3 3 2 2 2 2 2 2
2 3 4 2 2 1 5 3 0 3 7 7 6 6 5 4 4 5 4 4 4 3 3 3 4 4 4 3 3 3 3 3 3 2 2 3 3 3 3 3 3 2 3 3 3 3 3 2 2
3 3 2 3 1 1 4 1 2 4 8 6 6 5 4 3 3 3 4 3 3 3 3 3 3 4 4 3 3 3 3 3 3 2 3 3 3 3 3 2 2 2 3 3 3 3 3 3 2
4 1 2 3 0 2 3 3 2 4 7 6 5 5 5 3 2 3 3 4 3 4 4 4 3 3 4 4 3 3 4 4 3 3 3 3 3 4 3 2 2 2 3 3 3 3 2 2 3
3 2 2 3 2 3 2 3 2 4 6 5 5 4 4 4 5 3 4 4 4 4 4 4 3 3 3 3 3 3 4 3 3 3 3 3 3 4 3 3 3 3 3 3 3 3 3 2 2
4 3 4 4 2 3 2 2 3 4 4 4 4 5 5 6 4 3 4 4 4 4 4 4 4 3 3 2 2 2 2 2 2 3 4 4 3 3 3 3 3 3 3 2 3 2 4 3 3
3 2 3 3 1 2 1 1 2 4 5 6 6 7 7 5 3 4 5 5 5 5 4 4 4 4 3 2 2 2 2 2 2 2 4 4 3 3 3 3 2 3 2 3 3 3 3 2 3
3 5 4 3 2 4 3 3 2 1 1 2 4 5 6 7 6 6 6 6 5 5 5 5 4 3 3 3 3 4 3 3 3 3 3 3 4 4 3 3 2 2 2 2 2 2 3 2 2
4 5 5 4 3 1 2 2 5 3 2 3 5 5 6 7 6 6 6 6 6 6 5 5 4 4 3 4 4 5 4 2 1 1 1 2 3 3 3 3 3 2 2 2 1 2 2 2 1
4 2 4 3 4 2 2 1 6 1 4 6 6 6 7 7 7 7 7 7 6 6 5 5 5 4 3 4 5 5 3 2 1 2 2 2 2 3 3 3 2 2 2 2 2 2 2 1 1
4 6 7 6 5 1 2 2 5 4 6 5 5 6 5 6 6 6 5 5 5 5 5 4 5 4 3 4 4 5 5 3 3 2 1 1 1 2 2 2 2 2 1 1 1 1 1 1 1
5 6 4 4 3 4 2 2 7 6 5 6 6 6 5 5 6 7 7 7 7 7 6 5 5 4 3 4 4 4 4 4 4 2 2 1 1 1 1 1 1 1 1 1 1 1 1 1 1
5 8 7 5 4 4 2 4 6 5 3 2 3 3 3 3 5 6 7 7 7 7 7 7 6 4 4 4 4 3 4 3 2 2 2 1 1 1 1 1 1 1 1 1 1 1 1 1 0
6 4 6 7 3 0 4 5 7 2 2 1 1 3 3 3 4 5 6 7 7 7 7 7 7 5 4 4 4 3 3 3 3 2 2 1 1 1 0 0 1 1 1 1 1 1 1 1 1
5 8 6 6 5 2 5 4 4 4 2 2 1 2 2 2 3 4 5 6 6 6 6 6 6 5 4 3 3 3 2 2 2 2 2 1 1 0 1 1 1 1 1 1 1 1 1 1 1
3 5 6 5 5 6 3 6 5 6 5 4 3 2 3 3 4 4 4 4 5 5 5 5 5 4 4 4 3 3 2 2 2 2 1 1 1 1 1 1 1 0 1 1 1 1 1 1 1
3 5 7 5 4 4 4 6 4 4 4 4 3 2 2 3 4 4 4 5 5 5 5 5 4 4 3 3 3 3 2 2 2 1 1 1 1 0 1 1 1 0 1 1 1 1 1 1 0
Wind_Direction
159 148 142 153 50 40 345 321 340 355 14 9 52 81 87 72 89 172 340 108 120 130 141 146 150 153 151 147 144 145 146 145 146 148 147 148 149 151 154 157 158 160 161 163 162 161 160 161 162
152 156 170 67 65 39 331 333 35 14 136 124 60 62 62 52 48 103 80 112 115 124 127 143 152 155 147 144 143 145 141 138 138 141 146 147 147 150 157 159 162 164 165 164 163 163 163 164 164
166 192 97 57 58 122 303 327 83 69 72 53 57 53 64 63 96 132 143 125 110 114 125 156 156 157 149 149 145 140 137 138 138 138 142 144 146 153 160 161 162 163 164 163 163 165 168 167 168
171 142 56 53 14 297 251 277 232 74 36 43 71 54 47 31 114 124 117 118 113 107 126 166 155 156 156 155 148 144 143 142 143 141 139 140 145 148 155 162 161 163 165 165 166 171 175 172 172
124 77 47 26 335 318 313 323 359 31 28 53 76 78 39 12 69 101 113 117 118 100 98 168 145 153 158 156 150 145 137 135 134 134 134 137 141 145 149 156 160 165 167 167 169 178 178 175 175
51 57 55 2 334 337 352 12 35 52 60 64 77 82 42 35 75 105 108 103 106 98 58 33 125 139 146 147 142 136 128 128 131 133 135 136 138 138 145 152 155 162 170 173 173 177 177 180 179
93 75 70 336 328 346 358 29 44 60 64 64 96 87 51 37 82 99 90 80 78 71 50 26 72 124 140 142 136 127 123 123 127 133 135 137 138 137 137 138 140 157 168 169 169 179 183 182 180
125 90 47 342 306 306 6 50 51 73 75 88 92 121 160 164 109 91 80 71 67 56 43 36 50 67 93 117 122 119 120 119 118 120 123 128 129 124 135 139 137 149 160 170 176 181 185 185 182
117 72 345 226 205 263 90 65 38 60 85 76 79 119 130 120 110 95 77 60 59 52 31 32 43 53 67 85 100 94 107 106 98 100 99 89 70 81 118 129 132 141 155 164 172 175 173 177 179
106 130 230 220 186 209 4 84 130 85 77 76 75 77 99 110 113 110 107 110 102 62 28 34 50 60 74 89 70 70 87 84 79 74 65 57 48 53 93 106 120 133 139 151 160 155 151 155 146
156 187 230 260 198 165 138 85 91 115 111 170 140 128 120 118 112 114 118 125 143 137 69 54 70 73 85 73 73 71 77 76 73 66 60 58 47 37 47 56 46 70 99 105 107 109 120 131 142
173 244 217 233 140 123 147 127 93 117 183 148 134 136 134 133 138 143 140 140 117 96 74 76 81 83 81 82 77 76 78 76 72 65 63 63 47 36 55 70 59 64 81 94 99 113 117 124 134
193 274 301 222 209 129 109 101 108 101 109 112 119 126 139 146 146 141 128 112 102 102 90 85 90 91 88 83 78 78 73 78 73 64 60 71 62 47 53 64 66 59 63 74 82 109 122 130 132
196 150 348 6 71 99 107 76 86 120 122 122 131 141 151 157 154 140 131 128 127 127 116 94 92 97 95 94 90 78 76 82 75 65 59 76 79 69 59 54 50 47 51 58 78 94 116 126 134
87 57 5 6 52 89 102 47 43 162 133 135 147 151 152 158 153 156 161 154 150 138 118 111 114 100 99 99 98 85 78 78 65 53 57 78 90 82 71 60 47 35 49 55 65 67 89 99 104
53 60 358 297 96 99 109 235 258 150 142 151 160 157 156 165 169 172 159 152 140 122 112 109 117 109 106 98 87 72 71 73 60 50 57 67 90 100 92 75 49 39 60 52 52 66 77 78 79
42 80 247 281 238 124 128 221 229 145 149 163 169 167 168 172 181 186 168 157 146 140 128 114 108 113 111 97 83 72 68 63 55 56 56 58 73 87 94 75 55 60 59 48 56 63 80 83 73
234 240 254 252 256 121 164 229 209 164 160 175 174 174 179 190 207 194 174 156 144 138 129 124 114 106 103 92 80 71 62 51 50 52 51 61 73 82 87 70 52 58 62 52 48 57 60 73 74
181 205 251 262 241 144 200 249 240 177 169 180 188 191 199 205 203 175 167 156 140 132 132 137 132 124 114 102 99 89 71 56 50 50 49 56 65 78 80 66 54 56 63 58 56 68 61 51 57
180 215 265 313 23 122 133 289 247 184 192 194 196 199 201 201 179 174 170 162 160 157 153 147 145 140 135 130 125 117 109 88 70 43 45 50 58 68 87 79 73 67 66 54 53 66 70 57 45
213 197 209 208 29 45 70 343 299 251 206 196 202 202 200 201 196 187 182 173 163 164 166 161 155 146 139 127 108 95 76 59 52 43 30 27 50 63 71 66 74 69 77 70 55 72 88 85 44
251 217 177 164 118 326 88 279 282 250 262 223 217 206 205 208 197 183 178 174 172 170 161 150 149 144 139 131 127 129 125 118 117 91 52 29 47 56 63 65 66 67 69 73 63 68 83 98 81
212 120 114 120 117 54 18 172 285 310 256 245 228 212 200 201 192 184 182 175 165 155 154 148 141 134 127 131 138 129 119 121 104 80 61 38 31 45 54 62 63 62 59 60 58 62 81 96 105
136 68 55 51 71 -0 256 191 277 242 236 248 229 216 197 188 185 176 166 149 148 142 137 139 136 133 131 131 133 139 142 137 121 103 80 36 23 26 36 61 62 61 58 50 50 62 74 94 104
104 95 43 6 8 262 264 214 252 257 248 233 226 217 196 181 178 171 166 163 159 151 150 149 146 145 144 138 139 148 154 153 152 151 141 119 38 2 353 53 66 54 40 43 49 68 51 74 137
169 146 160 191 216 272 307 246 258 276 287 244 191 176 147 164 173 177 175 170 166 162 159 157 161 164 166 159 158 154 157 159 159 162 155 164 196 247 321 47 86 72 65 56 51 52 21 36 83
143 163 156 130 129 27 284 290 302 316 9 46 112 121 141 167 175 173 165 165 165 168 169 168 166 166 169 166 157 153 157 155 155 157 152 170 224 202 113 91 62 50 60 64 75 53 19 34 19
132 140 107 122 146 220 290 284 255 263 261 274 218 158 178 161 151 153 160 163 166 171 166 162 163 166 161 159 169 172 169 157 149 148 155 175 201 133 120 95 61 38 33 46 65 45 16 47 15
108 101 106 113 144 153 224 268 233 216 210 207 214 188 183 175 162 154 156 155 150 147 148 155 161 154 157 164 160 150 156 149 139 151 169 184 193 169 147 152 122 52 18 45 71 51 48 60 14
137 146 144 148 185 165 172 260 290 208 199 180 182 188 167 156 151 142 135 133 133 135 139 151 160 164 168 155 144 147 140 137 144 162 183 165 194 205 180 158 150 160 23 34 82 58 52 93 341
Height
1485 1485 1486 1487 1489 1495 1496 1487 1481 1479 1478 1478 1477 1477 1478 1480 1483 1486 1481 1478 1478 1479 1479 1480 1481 1481 1481 1482 1484 1485 1485 1485 1485 1486 1488 1490 1492 1493 1495 1496 1498 1499 1500 1501 1502 1503 1504 1506 1508
1485 1485 1488 1488 1494 1504 1498 1485 1482 1480 1479 1479 1478 1478 1479 1480 1480 1481 1480 1480 1480 1480 1480 1481 1481 1482 1482 1483 1484 1485 1486 1486 1487 1487 1489 1491 1493 1494 1496 1497 1498 1500 1501 1502 1503 1504 1506 1507 1509
1486 1486 1489 1490 1496 1502 1496 1484 1482 1480 1479 1479 1480 1480 1481 1482 1482 1482 1482 1481 1481 1481 1481 1481 1482 1482 1483 1484 1485 1486 1486 1486 1487 1488 1490 1492 1493 1495 1496 1498 1499 1500 1501 1502 1503 1505 1506 1508 1510
1487 1488 1489 1494 1497 1492 1487 1483 1481 1480 1480 1480 1481 1482 1483 1484 1484 1484 1483 1483 1483 1483 1482 1482 1481 1482 1482 1484 1485 1486 1486 1486 1487 1489 1491 1493 1494 1496 1497 1498 1499 1500 1502 1503 1504 1505 1507 1508 1510
1487 1488 1493 1499 1496 1488 1484 1483 1482 1481 1481 1482 1482 1484 1485 1486 1485 1485 1485 1485 1484 1484 1483 1482 1481 1480 1481 1484 1486 1487 1487 1487 1488 1490 1492 1494 1495 1497 1498 1499 1500 1501 1502 1503 1504 1505 1507 1508 1510
1489 1490 1501 1504 1496 1487 1484 1483 1483 1483 1483 1483 1483 1485 1487 1488 1487 1487 1487 1487 1486 1485 1484 1483 1481 1480 1481 1484 1487 1488 1489 1489 1490 1492 1494 1495 1497 1498 1498 1499 1500 1501 1502 1503 1504 1505 1507 1508 1509
1491 1494 1501 1501 1497 1490 1485 1484 1484 1484 1484 1485 1485 1486 1488 1489 1489 1489 1489 1489 1488 1487 1486 1485 1484 1483 1485 1487 1489 1490 1491 1491 1492 1493 1495 1496 1497 1498 1499 1499 1500 1501 1502 1503 1504 1505 1506 1507 1508
1490 1494 1499 1500 1497 1492 1486 1486 1486 1486 1486 1487 1486 1487 1489 1490 1491 1491 1491 1491 1490 1489 1489 1488 1487 1487 1488 1489 1491 1492 1493 1493 1494 1495 1496 1497 1498 1498 1499 1499 1500 1501 1501 1502 1503 1504 1505 1506 1507
1490 1498 1503 1498 1495 1490 1486 1486 1487 1487 1487 1488 1488 1489 1490 1491 1491 1492 1492 1492 1491 1491 1491 1490 1490 1490 1491 1492 1493 1494 1495 1495 1496 1497 1497 1498 1498 1498 1499 1499 1500 1500 1501 1502 1502 1503 1503 1504 1506
1491 1500 1496 1489 1488 1487 1486 1487 1487 1488 1489 1489 1490 1491 1492 1492 1492 1492 1492 1492 1493 1493 1492 1492 1492 1492 1493 1494 1495 1496 1497 1497 1498 1498 1499 1499 1499 1498 1498 1499 1500 1500 1501 1501 1501 1502 1502 1503 1504
1489 1493 1488 1486 1486 1486 1486 1487 1488 1489 1491 1490 1490 1491 1493 1493 1494 1494 1494 1494 1495 1495 1494 1494 1494 1494 1495 1496 1497 1498 1499 1499 1500 1500 1500 1500 1499 1498 1497 1498 1499 1499 1500 1500 1500 1501 1501 1502 1503
1489 1487 1487 1486 1485 1486 1486 1487 1489 1490 1491 1491 1491 1492 1493 1494 1495 1495 1496 1496 1497 1497 1496 1496 1496 1496 1497 1498 1499 1500 1501 1501 1501 1502 1502 1501 1499 1498 1497 1498 1499 1499 1499 1499 1500 1500 1500 1501 1502
1489 1487 1486 1485 1485 1486 1487 1488 1490 1491 1492 1492 1493 1494 1494 1495 1496 1497 1497 1498 1499 1499 1499 1499 1499 1499 1500 1500 1501 1502 1503 1503 1503 1503 1503 1503 1501 1500 1499 1499 1500 1500 1500 1499 1499 1499 1499 1499 1500
1487 1487 1486 1486 1486 1487 1488 1490 1491 1493 1493 1493 1494 1495 1496 1497 1497 1498 1498 1499 1500 1500 1500 1501 1501 1501 1502 1502 1503 1504 1504 1505 1505 1505 1505 1504 1503 1502 1501 1501 1501 1501 1500 1499 1499 1498 1497 1498 1499
1487 1489 1488 1487 1487 1488 1490 1494 1493 1492 1493 1494 1495 1496 1497 1498 1499 1499 1500 1501 1501 1502 1502 1502 1503 1503 1504 1504 1505 1505 1506 1506 1506 1506 1506 1506 1505 1504 1504 1503 1503 1502 1501 1500 1499 1498 1498 1498 1499
1489 1494 1499 1491 1488 1489 1494 1502 1493 1493 1494 1495 1496 1498 1498 1499 1500 1501 1502 1502 1503 1503 1504 1504 1505 1505 1506 1506 1507 1507 1508 1508 1508 1508 1508 1507 1507 1506 1505 1505 1504 1504 1503 1502 1501 1500 1499 1500 1500
1498 1505 1502 1495 1488 1489 1494 1499 1493 1493 1494 1495 1497 1498 1499 1500 1501 1502 1503 1504 1504 1505 1505 1505 1506 1507 1507 1508 1508 1509 1509 1509 1509 1509 1509 1509 1508 1508 1507 1507 1506 1505 1504 1503 1502 1502 1501 1501 1501
1505 1505 1502 1499 1491 1491 1495 1496 1493 1494 1494 1495 1496 1498 1499 1500 1501 1502 1503 1504 1505 1506 1507 1507 1508 1508 1509 1509 1510 1510 1510 1510 1511 1511 1511 1510 1510 1509 1509 1508 1507 1507 1506 1505 1504 1503 1503 1503 1502
1493 1498 1501 1496 1489 1492 1496 1496 1494 1493 1494 1495 1496 1497 1498 1499 1500 1502 1503 1504 1506 1507 1508 1508 1508 1509 1509 1510 1510 1510 1511 1511 1511 1511 1512 1511 1511 1511 1510 1509 1509 1508 1507 1507 1506 1505 1504 1504 1504
1492 1498 1499 1494 1489 1493 1497 1497 1493 1493 1493 1494 1495 1496 1496 1498 1499 1501 1502 1504 1505 1507 1508 1509 1509 1510 1510 1511 1511 1512 1512 1512 1512 1512 1512 1512 1512 1511 1511 1510 1509 1509 1508 1508 1507 1507 1506 1506 1506
1492 1496 1497 1497 1494 1494 1498 1502 1497 1493 1493 1493 1494 1494 1495 1496 1497 1499 1501 1502 1504 1506 1507 1509 1510 1510 1511 1512 1512 1513 1513 1513 1513 1513 1513 1513 1512 1512 1512 1511 1511 1510 1510 1509 1509 1508 1508 1508 1508
1495 1486 1488 1493 1502 1509 1504 1518 1501 1495 1493 1492 1492 1492 1493 1494 1496 1497 1499 1501 1503 1505 1507 1508 1510 1511 1512 1512 1513 1513 1513 1513 1513 1514 1514 1514 1513 1513 1512 1512 1512 1511 1511 1510 1510 1510 1509 1509 1509
1486 1482 1487 1493 1503 1512 1509 1516 1508 1497 1496 1491 1489 1489 1490 1492 1494 1496 1497 1499 1502 1504 1506 1508 1510 1511 1512 1513 1513 1513 1514 1514 1514 1514 1514 1514 1514 1514 1513 1513 1512 1512 1512 1511 1511 1511 1510 1510 1510
1480 1487 1493 1502 1510 1522 1514 1517 1512 1500 1492 1488 1486 1486 1488 1489 1492 1494 1497 1499 1501 1503 1506 1508 1510 1511 1512 1513 1513 1513 1514 1514 1514 1514 1514 1514 1514 1514 1513 1513 1513 1512 1512 1512 1512 1511 1511 1511 1511
1483 1500 1519 1522 1529 1525 1512 1514 1508 1489 1485 1484 1484 1484 1485 1488 1490 1493 1495 1497 1499 1502 1505 1507 1509 1511 1512 1513 1513 1514 1514 1514 1514 1514 1514 1514 1514 1513 1513 1513 1513 1513 1512 1512 1512 1512 1511 1511 1511
1485 1494 1517 1527 1531 1525 1513 1514 1498 1484 1482 1481 1482 1483 1485 1487 1489 1491 1493 1495 1498 1500 1503 1506 1508 1509 1511 1512 1513 1513 1514 1514 1514 1515 1515 1515 1514 1514 1513 1513 1513 1512 1512 1512 1512 1511 1511 1511 1511
1485 1493 1494 1513 1520 1525 1518 1507 1492 1482 1482 1482 1482 1483 1484 1486 1487 1490 1492 1494 1496 1499 1501 1504 1506 1508 1510 1511 1512 1513 1513 1514 1514 1514 1514 1514 1514 1514 1513 1512 1512 1512 1512 1511 1511 1510 1510 1510 1510
1476 1486 1501 1513 1526 1530 1519 1511 1504 1488 1485 1483 1482 1483 1484 1485 1487 1488 1491 1493 1495 1498 1500 1503 1505 1507 1509 1510 1511 1512 1513 1513 1513 1514 1514 1514 1514 1513 1512 1512 1511 1511 1511 1510 1510 1509 1509 1509 1509
1481 1489 1499 1510 1513 1526 1528 1514 1485 1483 1482 1482 1482 1482 1483 1484 1485 1487 1489 1492 1495 1497 1499 1502 1504 1505 1507 1509 1510 1511 1512 1512 1513 1513 1513 1513 1513 1512 1512 1511 1510 1510 1509 1509 1508 1508 1508 1508 1508
1474 1482 1493 1505 1513 1516 1520 1510 1479 1478 1479 1480 1482 1483 1483 1484 1485 1487 1489 1491 1493 1496 1498 1500 1503 1504 1506 1508 1509 1510 1511 1511 1512 1512 1512 1512 1512 1511 1511 1510 1509 1509 1508 1507 1507 1507 1507 1506 1506